Flag for Lithuania Weather past 2 weeks in Vilnius, Lithuania

Now
37 °F

Fog.


Feels Like: 31 °F
Forecast: 26 / 38 °F
Wind: 8 mph from East

Location: Vilnius Airport

Current Time: Oct 22, 2014 at 4:56:35 AM

Latest Report: Oct 22, 2014 at 4:20 AM


Visibility: 2 mi

Pressure: 29.71 "Hg

Humidity: 87%

Dew point: 34 °F

Location of VilniusLocation

Historic Weather in Vilnius — Graph

°F

Vilnius temperature yesterday

Maximum temperature yesterday: 54 °F (at 12:50 PM)
Minimum temperature yesterday: 43 °F (at 11:50 PM)
Average temperature yesterday: 50 °F

Past Weeks' High & Low Weather Summary

 TemperatureHumidityPressure
High68 °F (Oct 10, 2:20 PM)100% (Oct 11, 7:20 AM)30.39 "Hg (Oct 11, 7:20 AM)
Low25 °F (Oct 19, 1:50 AM)43% (Oct 11, 2:50 PM)29.50 "Hg (Oct 20, 7:50 PM)
Average50 °F84%29.92 "Hg
* Reported Oct 7 3:20 AM — Oct 22 3:50 AM, Vilnius, Weather by CustomWeather, © 2014

Note: Actual official high and low records may vary slightly from our data, if they occured in-between our weather recording intervals... More about our weather records

Advertising

Vilnius weather history for previous 24 hours

 ConditionsComfort  
Time TempWeatherWind HumidityBarometerVisibility
3:50 AM
Oct 22
37 °FFog.7 mph93%29.71 "Hg2 mi
3:20 AM39 °FFog.6 mph87%29.71 "Hg2 mi
2:50 AM39 °FFog.6 mph87%29.71 "Hg2 mi
2:20 AM39 °FFog.6 mph93%29.71 "Hg2 mi
1:50 AM39 °FFog.8 mph93%29.71 "Hg2 mi
1:20 AM39 °FFog.8 mph100%29.71 "Hg1 mi
12:50 AM41 °FFog.8 mph93%29.68 "Hg2 mi
12:20 AM43 °FFog.10 mph93%29.68 "Hg2 mi
11:50 PM
Oct 21
43 °FFog.8 mph93%29.68 "Hg2 mi
11:20 PM45 °FFog.6 mph93%29.68 "Hg2 mi
10:50 PM45 °FPartly cloudy.6 mph93%29.68 "Hg4 mi
10:20 PM45 °FPartly cloudy.5 mph93%29.68 "Hg4 mi
9:50 PM46 °FPartly cloudy.5 mph87%29.68 "Hg4 mi
9:20 PM46 °FPartly cloudy.5 mph87%29.65 "Hg5 mi
8:50 PM46 °FPartly cloudy.1 mph87%29.65 "Hg5 mi
8:20 PM46 °FPassing clouds.1 mph82%29.65 "HgN/A
7:50 PM48 °FPartly cloudy.2 mph76%29.65 "HgN/A
7:20 PM48 °FPartly cloudy.1 mph76%29.65 "HgN/A
6:50 PM48 °FBroken clouds.1 mph82%29.65 "HgN/A
6:20 PM48 °FPartly sunny.2 mph82%29.65 "HgN/A
5:50 PM50 °FPartly sunny.7 mph76%29.65 "HgN/A
5:20 PM52 °FPartly sunny.8 mph72%29.65 "HgN/A
4:50 PM52 °FScattered clouds.8 mph72%29.62 "HgN/A
4:20 PM54 °FScattered clouds.10 mph67%29.62 "HgN/A
3:50 PM54 °FPartly sunny.12 mph72%29.62 "HgN/A
3:20 PM52 °FPartly sunny.9 mph77%29.62 "HgN/A
2:50 PM54 °FPartly sunny.9 mph77%29.62 "HgN/A
2:20 PM54 °FPartly sunny.9 mph77%29.62 "HgN/A
1:50 PM54 °FPartly sunny.9 mph77%29.62 "HgN/A
1:20 PM54 °FPartly sunny.6 mph82%29.62 "HgN/A
12:50 PM54 °FPartly sunny.8 mph82%29.62 "HgN/A
12:20 PM52 °FPartly sunny.9 mph88%29.62 "HgN/A
11:50 AM52 °FPartly sunny.8 mph88%29.62 "Hg5 mi
11:20 AM52 °FPartly sunny.7 mph94%29.62 "Hg4 mi
10:50 AM52 °FFog.7 mph94%29.59 "Hg2 mi
10:20 AM52 °FFog.7 mph94%29.59 "Hg2 mi
9:50 AM52 °FFog.7 mph88%29.59 "Hg2 mi
9:20 AM50 °FFog.8 mph94%29.59 "Hg2 mi
8:50 AM50 °FFog.6 mph94%29.56 "Hg2 mi
8:20 AM50 °FFog.7 mph94%29.56 "Hg2 mi
7:50 AM50 °FFog.8 mph94%29.56 "Hg2 mi
7:20 AM50 °FFog.10 mph94%29.56 "Hg2 mi
6:50 AM50 °FFog.13 mph94%29.53 "Hg2 mi
6:20 AM50 °FRain. Fog.12 mph94%29.53 "Hg2 mi
5:50 AM52 °FRain. Fog.9 mph88%29.53 "Hg2 mi
5:20 AM52 °FOvercast.12 mph88%29.53 "Hg5 mi
4:50 AM52 °FOvercast.13 mph88%29.53 "Hg5 mi
4:20 AM52 °FMostly cloudy.13 mph88%29.53 "Hg5 mi
Weather by CustomWeather, © 2014

See weather overviewHow to use our weather pages